Location: Gleizolles
(44.4833°N, 6.7667°E)
Time: 11:13:55
(UTC+00:00)

Envisat - Pass Details

Date: 10 December 2021
Orbit: 764 x 766 km, 98.2° (Epoch: 28 January)

Event Time Altitude Azimuth Distance (km) Brightness Sun altitude
Rises 05:08:04 0° 8° (N) 3,244 6.2 -18.9°
Reaches altitude 10° 05:10:26 10° 3° (N) 2,313 5.4 -18.5°
Maximum altitude 05:15:20 50° 289° (WNW) 975 3.1 -17.6°
Drops below altitude 10° 05:20:12 10° 215° (SW) 2,296 5.3 -16.8°
Sets 05:22:33 0° 211° (SSW) 3,218 6.1 -16.4°
